Theta_e
312 317 325 326 323 320 320 322 318 320 319 310 312 314 317 323 324 324 326 326 325 328 327 327 327 327 329 328 338 350 346 352 354 344 346 356 349 346 348 348 347 345 342 332 324 324 322 319 321 325 326 327 333 339 338 337 338 339 339 336 333 329 329 331 337 340 342 343 343 344 344 344 344 344 344 344 344 344 344 343 343 343 343 343 342 341 341 340 338 337 336 336 338 336 333 332 331
313 318 324 324 321 321 320 322 316 314 314 308 312 316 318 324 324 324 326 328 328 328 329 328 328 327 330 328 337 349 350 351 353 352 353 352 348 349 349 348 348 344 341 332 328 329 325 321 321 323 325 324 329 336 338 337 338 338 337 334 331 328 331 336 341 342 343 343 343 344 344 344 343 344 344 344 344 344 344 344 343 342 342 342 342 342 341 339 338 338 337 339 339 335 333 333 332
312 314 320 320 320 321 321 321 315 310 310 308 311 319 322 323 322 324 326 328 330 327 329 327 329 329 329 331 336 348 354 349 349 351 349 350 350 350 349 349 347 343 340 337 338 337 329 322 322 322 324 324 328 334 336 337 337 335 333 331 330 330 334 340 342 343 344 343 343 343 343 343 343 343 343 343 343 343 343 343 343 342 342 341 341 342 341 340 339 338 339 339 337 333 331 332 333
311 313 319 320 319 319 321 319 316 311 309 308 309 319 323 322 323 326 327 329 328 326 328 326 328 331 331 334 338 347 354 350 349 350 349 352 350 351 350 348 346 343 341 340 342 339 328 322 321 322 324 324 327 332 333 335 334 333 331 330 330 332 338 342 343 343 344 344 343 343 343 343 343 343 342 343 342 343 343 343 343 342 342 341 341 341 341 340 338 338 339 337 332 330 331 331 332
312 315 318 320 319 319 320 318 317 312 310 312 311 319 323 323 323 324 327 327 325 325 326 326 326 329 341 341 340 348 352 351 349 349 350 351 350 351 349 348 346 344 342 341 342 336 325 322 321 322 325 325 327 329 331 331 331 332 331 331 332 336 341 342 343 344 343 343 344 343 343 342 342 343 342 342 342 343 342 342 342 342 341 340 340 339 338 336 335 335 334 331 329 330 331 330 330
316 318 318 319 319 318 317 314 314 312 315 318 316 320 323 323 324 324 326 325 324 325 324 326 324 329 349 348 343 347 349 348 349 351 352 351 350 350 349 348 346 344 344 342 340 332 325 325 322 325 328 326 326 327 329 330 330 331 332 334 337 340 342 343 343 343 343 343 344 343 343 342 342 341 341 341 340 340 339 341 341 341 340 339 338 337 335 333 332 331 328 327 330 331 330 330 329
319 320 319 319 319 318 316 311 311 313 317 321 320 321 323 323 324 324 323 324 323 325 324 327 326 327 345 350 345 344 344 346 348 352 352 351 350 350 349 347 346 346 344 342 340 333 327 326 325 329 332 330 326 325 328 330 331 334 336 338 340 342 343 343 343 343 343 343 343 343 342 341 340 339 338 338 336 334 334 337 338 339 339 338 336 334 334 331 330 328 326 329 331 331 330 330 329
319 319 318 318 319 318 316 313 314 316 318 320 321 322 323 323 323 323 323 323 322 323 323 327 330 328 339 349 347 344 345 348 349 352 352 351 351 350 348 347 347 346 344 343 340 333 326 326 329 333 336 335 329 327 332 335 337 339 340 341 342 343 344 343 343 343 343 343 342 341 340 338 337 335 334 333 333 332 331 331 333 336 335 334 331 326 327 327 327 326 326 330 331 330 330 330 329
319 318 317 317 316 317 314 314 316 318 320 320 321 322 323 323 322 323 322 322 322 322 322 324 328 332 343 349 347 345 347 351 352 352 351 350 351 349 348 347 346 346 345 342 335 329 329 330 332 335 340 339 334 335 340 341 342 343 343 343 344 344 344 343 343 343 343 342 341 339 338 336 334 331 329 328 328 328 327 325 325 328 329 329 326 319 318 323 326 326 327 331 331 330 330 330 330
318 316 316 316 314 312 311 313 315 318 320 320 322 321 322 323 322 323 322 323 322 322 321 323 324 330 347 350 348 348 350 353 352 351 351 351 350 349 348 347 347 347 344 338 334 334 336 335 333 337 340 339 339 341 343 344 344 344 343 344 344 344 344 343 343 342 342 341 340 338 337 335 332 329 326 325 323 323 321 320 318 320 320 321 321 317 315 322 326 326 327 330 331 330 330 330 329
318 316 316 314 311 308 308 311 315 318 320 320 321 321 323 322 322 323 322 323 320 322 321 321 322 322 346 352 349 350 351 351 352 352 352 351 350 349 348 348 347 346 343 338 336 339 339 338 337 338 340 339 339 341 343 343 344 344 344 343 344 344 343 343 342 342 342 341 339 338 337 336 333 330 326 323 321 320 318 315 313 313 314 314 316 314 316 323 326 325 328 331 331 330 330 330 330
316 316 316 313 309 309 310 311 314 319 320 320 321 322 323 322 322 322 321 321 320 322 320 321 322 319 347 355 351 351 352 351 352 352 351 351 350 349 348 348 347 345 343 340 338 340 340 339 339 339 341 340 340 341 341 341 343 344 344 343 343 343 343 342 342 342 342 340 339 338 337 336 334 332 328 323 321 320 317 313 311 310 310 312 312 311 315 323 326 325 327 330 331 330 330 330 330
316 316 316 313 312 312 313 312 315 319 319 319 320 321 322 323 323 323 320 320 320 320 319 322 320 324 350 356 352 350 352 351 352 352 351 350 350 348 347 348 347 345 344 341 340 341 340 339 339 338 339 340 339 340 340 340 342 343 343 344 344 343 343 342 342 342 342 340 339 338 337 335 334 333 329 324 322 322 320 315 312 311 311 312 311 309 314 323 326 325 327 330 331 330 330 330 331
316 317 316 314 315 315 314 312 314 314 315 320 321 321 323 322 322 322 319 320 319 320 321 321 323 344 356 356 354 351 352 351 353 352 351 349 350 347 347 348 346 346 344 343 342 342 340 340 339 339 338 339 339 340 340 341 343 343 343 344 343 343 343 342 342 341 341 340 339 338 337 335 334 332 330 326 322 323 322 317 312 311 311 311 310 308 314 323 325 324 327 329 331 330 330 330 330
316 317 317 315 315 314 314 314 314 313 314 320 320 322 321 321 321 319 320 318 320 320 322 321 324 347 355 357 355 352 351 351 352 351 351 349 348 346 346 346 346 345 344 343 343 342 341 340 340 339 339 339 339 339 340 341 342 343 343 343 343 343 343 342 342 341 341 340 339 337 336 336 334 332 330 328 324 322 322 321 315 312 312 310 310 309 315 323 325 325 327 329 331 330 330 329 330
316 316 317 314 312 312 314 316 316 313 315 320 320 321 320 320 320 319 321 319 320 321 321 322 320 333 349 354 354 350 351 352 351 351 349 348 347 345 346 346 345 345 344 343 343 342 342 341 340 340 340 340 339 338 340 341 341 343 343 343 343 342 342 342 341 341 340 339 338 337 336 335 334 333 332 328 325 322 323 324 318 313 313 312 311 310 316 322 324 325 327 329 331 331 331 330 330
316 316 316 313 312 311 315 318 317 315 317 321 319 320 319 319 320 320 321 320 320 321 320 324 322 329 345 350 351 350 352 351 350 349 348 348 347 345 345 346 345 345 344 343 343 343 342 341 341 341 341 341 340 339 339 340 340 342 343 342 342 342 342 341 341 340 339 339 338 338 338 338 338 337 337 333 331 328 324 325 321 315 313 313 314 313 317 322 323 325 325 328 330 331 331 330 331
316 317 315 312 313 314 316 319 318 318 319 320 319 321 319 319 320 319 324 322 324 326 323 329 332 335 344 350 352 350 351 350 350 349 348 348 347 346 346 346 346 346 345 344 343 344 343 342 342 342 341 342 341 339 339 339 340 341 342 342 342 341 341 340 340 339 338 338 337 337 339 341 341 341 341 339 339 336 328 324 322 320 315 313 314 316 319 321 322 324 325 327 328 330 330 331 331
317 317 314 312 315 316 317 319 319 320 319 320 321 320 319 320 320 321 328 330 329 329 325 336 342 345 349 350 352 351 350 350 350 349 350 349 348 348 348 347 347 346 346 344 344 345 345 343 343 343 343 343 341 341 339 337 338 338 339 342 341 341 341 340 339 340 340 338 337 338 339 340 340 340 341 342 342 339 333 328 324 324 321 317 314 314 317 319 321 322 324 325 327 328 329 334 338
318 316 315 315 317 317 318 320 319 320 320 320 320 319 320 319 320 322 329 331 332 330 325 340 349 351 353 352 352 352 351 351 352 352 351 350 349 348 348 348 347 346 346 345 345 345 346 345 344 344 344 343 342 341 337 335 337 336 338 341 341 341 342 341 340 341 341 339 339 339 338 337 338 339 338 340 341 337 335 330 324 323 324 323 321 317 316 316 318 319 320 321 324 325 325 333 340
318 317 316 316 317 317 317 319 319 320 320 319 319 320 320 319 320 320 323 326 329 330 323 339 351 352 353 352 351 353 352 352 353 353 352 352 350 349 349 348 347 347 346 345 345 346 345 345 344 344 343 343 343 340 336 336 337 336 337 340 341 341 342 341 340 340 340 339 339 338 338 335 336 336 332 334 338 338 338 333 329 329 330 331 329 328 328 326 328 328 325 324 324 324 324 329 336
319 318 317 317 317 317 318 319 319 320 320 318 319 319 320 319 321 320 320 322 323 329 325 335 350 351 352 351 351 353 352 352 353 353 352 352 351 350 350 348 347 347 346 346 346 345 345 344 344 344 343 343 342 340 338 338 337 336 336 337 340 340 340 339 339 339 339 338 338 337 336 334 336 337 333 334 338 339 340 338 336 337 338 338 335 335 338 336 336 337 334 333 331 329 329 331 334
318 318 317 317 317 317 318 320 319 320 319 319 318 318 320 319 319 320 320 321 320 326 327 334 349 351 351 351 352 353 352 352 352 352 352 352 352 351 350 348 347 347 346 346 345 345 345 344 344 343 342 342 342 340 339 339 338 337 336 336 338 338 337 337 338 338 338 337 336 335 334 335 337 338 337 338 338 337 338 339 340 339 339 339 337 335 337 337 337 337 337 336 333 332 332 332 333
317 317 317 317 317 317 317 319 319 320 319 318 318 317 318 318 318 319 320 321 319 326 332 337 345 350 352 352 353 353 353 352 352 352 352 352 351 350 350 347 347 347 346 346 346 345 345 344 343 343 342 341 341 340 338 339 338 337 336 337 338 337 336 336 336 336 336 336 336 335 334 337 339 339 339 339 337 338 339 340 339 339 338 338 338 336 336 337 336 335 335 334 334 333 333 332 331
317 317 318 317 317 317 317 318 319 319 319 318 318 317 318 318 319 319 320 321 320 329 340 340 342 347 350 352 353 353 352 352 352 351 349 348 349 349 348 347 346 346 346 346 345 345 344 344 343 342 340 340 340 339 336 336 337 337 336 337 337 336 335 334 335 335 335 335 335 336 337 339 340 339 340 339 337 339 341 341 340 340 339 339 339 340 338 338 338 336 335 334 334 334 334 333 332
317 317 317 317 317 317 317 318 318 319 320 319 318 317 317 318 319 318 320 320 320 334 342 342 344 345 346 349 352 353 353 354 350 347 344 344 348 349 348 347 346 346 346 346 345 345 344 343 342 340 340 339 338 336 336 336 337 337 336 337 336 335 334 334 334 335 335 336 336 337 340 340 339 340 341 341 339 339 341 341 341 341 340 340 341 340 340 339 338 337 337 337 336 337 336 335 335
317 317 317 317 317 317 318 317 318 319 319 319 318 317 317 318 318 317 319 320 320 333 341 341 344 345 347 349 352 352 350 347 342 341 341 341 346 348 347 347 346 346 345 345 345 345 344 342 341 339 338 338 336 336 335 336 338 337 336 336 335 335 336 335 335 336 336 337 338 339 340 340 340 341 341 340 340 340 341 340 340 340 340 340 339 338 338 338 338 338 338 338 338 338 337 337 337
316 317 317 316 316 317 317 317 318 318 319 319 318 317 318 318 318 318 319 320 319 328 341 343 342 344 345 347 349 344 339 337 335 337 340 340 345 347 348 347 347 347 345 345 345 344 343 341 339 337 336 335 335 336 335 335 337 336 336 335 334 336 337 336 337 337 338 339 340 341 341 341 340 340 340 340 338 339 341 341 341 341 340 340 339 339 340 339 340 340 339 339 339 339 339 339 338
315 316 315 316 317 317 316 317 318 319 318 319 318 316 316 317 317 318 318 321 321 325 337 340 340 341 340 344 342 337 336 336 335 337 339 340 342 346 348 347 346 346 345 344 344 343 341 339 337 337 335 335 335 335 335 336 336 337 336 336 336 338 338 338 340 340 341 341 341 341 341 341 340 340 340 340 340 340 341 342 342 341 340 341 341 341 342 340 341 341 341 340 339 340 340 339 339
315 315 315 316 316 315 317 317 317 319 318 318 317 312 313 317 318 318 320 322 325 336 344 344 345 343 339 338 337 336 337 336 337 338 338 339 341 345 346 346 346 345 344 342 342 341 339 337 336 336 336 336 336 335 336 336 337 338 338 338 339 340 340 341 342 342 342 342 341 341 340 341 340 341 340 340 340 341 341 342 342 342 342 341 342 342 342 341 341 341 341 340 340 340 340 340 339
314 314 314 315 312 313 317 317 316 318 317 319 317 310 312 317 317 318 320 325 338 342 342 341 341 340 335 335 336 336 337 336 337 338 337 337 337 340 342 343 344 344 342 341 341 340 338 338 337 336 337 337 336 336 337 338 339 340 340 341 341 341 342 341 341 340 341 341 341 341 341 341 341 341 341 340 340 340 340 341 341 342 342 341 341 342 341 340 340 340 340 340 339 339 339 339 339
315 312 312 313 311 312 318 317 316 316 317 318 316 311 312 320 332 336 337 340 343 339 340 342 343 342 335 336 339 337 336 336 335 335 336 335 333 336 339 340 340 341 342 341 340 339 338 338 337 337 338 337 338 338 340 340 341 341 341 341 341 341 341 340 339 339 339 341 341 340 341 342 342 342 342 341 341 341 341 341 342 342 341 340 341 341 340 339 339 338 338 338 338 337 338 337 337
314 312 310 311 310 311 315 316 317 316 317 318 316 313 312 328 342 343 345 344 340 339 340 340 341 341 336 336 338 335 334 335 335 334 334 335 334 336 338 338 338 338 339 339 338 337 337 339 339 338 339 341 341 341 341 341 340 340 341 342 341 341 340 339 339 339 340 340 340 340 341 342 341 341 342 342 341 341 341 341 341 341 341 340 341 340 339 339 338 337 337 337 338 337 338 338 337
311 312 310 311 312 311 311 314 317 317 317 317 318 315 314 336 346 343 344 342 339 340 339 338 338 337 336 336 335 336 336 336 337 334 333 335 335 337 338 338 337 337 337 337 337 337 338 339 340 340 341 342 342 341 341 341 341 340 340 340 340 340 340 339 339 339 339 338 339 340 341 341 342 342 343 342 341 341 340 341 341 341 341 341 341 339 339 338 337 337 337 337 337 337 337 338 337
310 310 310 311 312 312 310 312 316 317 317 315 317 315 316 337 347 343 343 341 339 339 338 338 338 336 336 335 334 336 337 336 335 334 335 336 336 337 338 338 337 337 337 337 338 338 339 339 340 340 340 342 341 340 341 341 341 341 341 340 339 339 338 338 338 337 338 338 339 340 342 342 342 342 342 341 341 341 340 340 341 341 342 341 340 339 338 337 337 337 337 337 337 337 338 338 337
313 312 312 310 309 311 312 314 318 317 317 315 317 315 314 333 345 344 341 340 340 340 340 339 338 338 337 336 335 335 335 336 335 335 337 337 335 336 337 338 337 337 337 338 338 338 339 339 340 340 340 341 341 340 340 340 341 340 340 340 339 338 337 337 337 336 337 338 338 339 341 341 341 341 341 341 341 341 340 339 340 340 340 339 338 338 338 337 337 337 337 337 337 337 337 337 337
315 313 313 311 309 311 314 316 317 317 317 315 317 316 315 332 344 345 342 340 340 342 342 340 339 339 338 337 337 338 339 339 337 337 339 337 336 336 337 338 337 336 337 338 339 338 339 340 339 340 340 340 339 339 339 339 339 338 339 339 337 336 336 336 335 336 337 337 337 339 340 340 340 340 340 340 340 340 340 339 338 339 338 337 337 338 337 336 336 336 337 337 337 337 337 337 337
314 314 312 312 310 311 315 317 316 318 317 314 318 316 315 332 342 342 343 341 341 341 343 341 339 340 340 339 339 342 342 339 337 338 340 338 337 337 337 338 337 336 336 337 338 338 339 339 338 339 339 338 338 338 337 337 337 337 338 337 335 335 336 335 335 337 337 336 337 339 339 338 338 338 338 338 338 338 338 337 337 337 337 336 336 337 336 336 335 335 336 337 337 337 336 336 337
314 313 311 310 311 312 315 317 317 319 316 315 318 313 316 335 340 339 340 341 340 341 343 341 340 340 340 341 341 341 340 339 339 341 340 338 338 337 337 339 338 337 336 335 337 337 337 338 337 338 338 337 338 338 337 337 337 336 335 335 334 335 335 335 336 337 336 336 338 337 337 337 336 336 335 335 336 336 336 336 335 335 335 335 335 335 335 335 335 335 335 336 336 336 336 336 335
312 313 310 309 312 311 310 314 318 318 316 318 315 315 329 341 339 339 338 338 339 341 343 342 340 341 341 342 341 339 339 339 341 341 340 339 338 337 337 339 337 336 336 335 336 336 336 337 338 337 338 337 336 337 337 337 336 335 334 334 334 335 335 336 336 336 335 336 336 335 335 334 334 333 333 334 334 334 334 334 334 334 334 334 334 334 334 334 335 334 334 335 335 335 336 336 335
312 313 311 310 313 312 311 314 317 317 317 318 314 317 334 342 338 340 338 336 340 340 343 343 341 342 342 341 340 339 340 340 341 340 339 339 338 338 337 338 337 336 335 335 336 336 336 337 338 337 337 336 336 336 336 336 336 335 334 334 334 335 335 334 334 334 335 336 335 334 333 333 332 332 332 331 332 332 333 332 333 333 333 333 332 333 333 333 333 333 333 334 334 335 335 335 335
310 313 314 314 315 315 315 316 316 312 311 316 313 312 324 338 336 339 338 338 343 340 342 344 342 343 343 342 341 341 341 341 341 339 338 339 339 338 337 337 337 336 335 335 336 336 336 336 337 337 336 336 337 337 336 335 335 334 333 334 333 333 333 332 333 335 336 336 334 333 331 331 330 330 330 329 329 330 330 331 330 330 331 330 330 330 331 330 330 331 331 331 332 332 333 334 335
309 312 315 316 318 315 314 315 312 309 309 315 316 308 317 334 335 337 339 338 343 342 341 342 342 343 343 343 342 341 342 342 340 338 337 339 339 338 338 337 337 336 335 336 336 336 336 336 336 336 336 336 337 337 336 335 334 333 333 333 332 332 331 332 334 335 335 334 332 331 330 329 329 328 328 327 327 328 328 328 327 328 328 327 327 327 328 328 327 328 328 328 329 329 330 332 332
308 313 315 315 317 316 315 315 311 311 311 314 317 309 317 332 336 337 338 337 341 344 342 341 341 341 341 340 340 340 342 342 341 340 338 339 339 339 338 337 337 337 337 336 335 336 336 336 336 336 336 337 336 335 335 334 334 333 333 333 332 332 332 333 335 334 334 333 331 330 328 327 327 327 326 325 325 326 325 325 325 325 325 325 325 325 325 325 325 325 325 326 327 327 328 328 329
311 315 316 316 317 316 316 314 311 313 312 309 313 310 312 321 333 336 337 337 339 342 341 340 340 339 340 340 338 340 341 340 340 340 339 338 339 339 338 338 337 337 337 336 335 335 335 335 336 335 336 335 336 335 335 334 333 333 333 333 332 332 333 334 334 334 332 331 330 328 328 327 326 325 324 323 324 324 323 323 323 323 323 323 322 322 322 323 323 323 323 324 325 325 325 325 326
313 315 316 316 316 316 316 315 311 311 312 309 310 311 306 311 326 334 333 336 338 338 337 338 337 337 338 340 339 340 339 340 340 339 339 340 339 340 338 338 338 337 337 336 335 335 335 335 335 335 334 334 334 334 334 334 333 333 332 333 333 333 334 334 333 333 331 329 329 328 327 326 325 324 322 321 322 322 321 321 321 321 320 320 320 320 320 321 321 321 321 323 323 323 323 323 323
314 315 315 314 314 315 315 315 312 309 311 310 309 311 308 307 322 332 331 335 338 337 338 337 335 334 337 339 339 340 339 339 340 339 340 340 340 339 338 338 338 337 336 336 336 334 334 334 334 334 333 333 332 333 333 333 333 333 333 333 334 334 333 333 332 331 329 328 327 326 325 324 322 321 321 320 320 320 320 319 320 320 319 319 319 319 319 319 319 320 321 321 321 321 320 320 320
314 314 313 311 310 312 312 312 313 311 311 310 309 311 309 307 319 330 330 335 336 335 338 337 335 333 335 338 338 340 340 339 340 340 339 339 338 339 338 338 337 336 336 335 335 334 333 334 334 333 333 332 332 332 331 331 331 332 331 331 331 331 331 330 329 328 326 326 325 324 324 323 322 320 320 319 319 319 319 318 318 318 318 318 317 317 317 317 317 319 319 318 318 318 317 317 318
313 313 311 309 308 310 311 311 311 311 310 310 311 312 308 308 321 331 331 332 333 332 334 333 333 333 335 339 339 340 341 339 340 339 338 338 338 338 338 337 336 336 335 335 334 334 333 334 333 332 331 330 330 330 329 329 329 329 329 329 329 328 327 327 326 325 325 324 323 323 323 322 321 320 319 318 318 318 317 317 317 316 316 316 316 316 316 316 316 317 317 316 316 316 315 315 316
313 311 309 309 309 311 314 313 312 312 310 310 311 311 308 308 321 334 331 329 332 332 331 330 332 331 334 340 340 340 341 341 339 338 337 337 337 337 337 336 336 336 335 334 333 333 333 333 331 329 329 328 328 327 327 327 327 326 326 327 326 325 325 324 324 323 323 322 322 322 321 320 320 318 318 317 317 317 317 316 316 316 316 315 315 315 316 315 316 316 315 315 315 314 314 315 315
312 312 312 310 309 311 313 311 311 312 310 309 311 311 308 308 318 332 331 328 329 330 332 330 332 334 336 340 340 340 340 340 339 337 337 337 337 336 336 336 336 335 334 333 332 333 332 330 329 328 327 327 326 325 325 324 324 324 324 324 324 323 323 322 322 321 321 320 320 320 319 319 318 317 317 316 316 316 316 315 315 315 315 314 314 314 314 315 315 314 314 314 313 313 313 314 314
311 313 312 311 311 311 311 310 312 313 311 310 309 309 312 315 321 328 328 328 328 329 331 329 335 340 339 341 341 338 337 338 338 337 337 337 336 336 336 336 335 334 333 332 332 331 330 329 328 327 326 325 325 323 323 322 322 322 322 322 322 321 321 320 320 319 319 319 318 318 318 317 316 316 316 315 315 315 315 315 314 314 314 314 314 314 314 314 314 313 313 313 311 312 313 313 313
312 311 310 312 315 314 310 311 315 315 313 311 309 310 316 322 322 325 327 327 328 329 330 329 337 340 339 340 340 337 337 339 336 337 337 336 335 335 336 335 334 333 332 331 331 330 329 328 327 326 325 324 323 322 321 321 320 320 320 320 320 320 319 319 318 318 318 318 317 317 316 316 316 315 315 315 314 314 314 314 313 313 313 313 313 313 313 313 312 312 312 311 311 311 312 312 312
311 309 311 314 316 315 312 311 314 315 314 312 309 309 314 317 319 325 327 327 328 330 331 332 336 340 340 340 339 337 338 338 336 337 337 336 335 335 335 334 333 332 332 330 329 328 327 327 326 325 323 323 322 321 320 319 319 319 319 319 319 318 318 318 318 318 317 317 316 316 316 315 315 315 314 314 313 313 313 313 312 312 312 312 312 312 312 311 311 311 311 310 310 310 311 311 311
312 311 314 314 312 312 311 311 314 315 314 313 310 309 310 312 317 325 326 326 330 331 333 332 333 339 340 339 339 338 337 338 337 337 337 335 335 335 334 333 332 331 330 329 328 327 326 325 324 323 322 321 320 320 319 318 318 318 318 318 317 317 317 317 317 317 316 316 316 315 315 315 314 314 313 313 312 312 311 311 310 310 310 310 310 311 311 311 311 311 310 310 309 310 310 310 310
313 313 314 312 312 311 310 311 312 313 313 313 311 310 309 311 319 326 326 327 330 330 331 332 333 340 341 340 340 339 338 338 337 337 337 335 334 334 333 331 330 329 329 328 326 326 325 324 323 322 321 320 319 319 318 318 318 318 317 317 317 316 316 316 316 315 315 315 315 315 314 314 313 312 312 312 311 310 309 309 308 308 307 308 308 309 310 310 310 310 310 309 310 309 309 310 310
311 311 310 310 311 311 311 311 310 310 312 313 313 312 310 313 323 327 325 329 329 328 336 341 341 343 342 341 339 338 339 338 336 336 335 334 333 333 331 330 329 328 327 327 325 324 323 322 322 320 320 319 318 318 318 317 317 317 317 316 315 315 315 315 315 315 314 315 314 314 313 313 312 312 311 311 310 309 308 307 306 306 306 306 306 307 308 309 309 309 309 309 309 309 309 309 309
311 311 310 310 310 310 310 311 310 309 310 311 314 312 311 316 325 327 326 330 327 329 340 345 346 343 341 339 338 338 338 337 336 335 333 332 332 331 330 329 327 327 326 325 323 322 322 321 320 319 319 318 317 317 317 316 316 316 315 315 315 315 314 314 314 314 314 314 313 312 312 312 311 311 310 309 308 308 307 306 305 305 304 304 305 306 307 308 309 309 309 308 308 308 308 307 307
Wind_Speed
11 13 16 15 15 15 13 8 6 5 6 8 9 9 9 13 13 13 13 10 7 3 7 5 5 5 4 7 8 17 11 8 6 2 3 8 16 16 21 31 28 26 25 25 23 21 20 19 19 19 19 19 19 19 20 19 18 17 16 15 14 14 14 16 16 14 13 12 12 12 12 12 13 13 13 14 14 14 14 14 14 14 13 13 13 13 13 12 12 12 11 11 10 10 10 10 11
10 12 15 15 15 11 6 4 6 6 7 9 9 9 10 12 12 14 7 12 8 9 11 5 4 4 2 3 6 16 13 12 11 7 9 18 19 17 26 28 26 26 24 24 23 21 21 19 19 20 19 19 19 19 19 19 18 17 16 15 14 15 17 17 15 13 13 13 12 12 12 12 13 13 13 13 14 13 13 13 13 13 13 13 13 13 12 12 11 10 10 9 9 9 9 10 10
10 10 13 14 12 8 5 5 7 8 8 9 9 10 13 11 14 15 1 10 9 9 5 3 2 1 3 2 7 12 9 9 14 12 10 19 16 18 27 25 26 26 23 23 21 21 21 20 20 20 20 19 19 20 19 19 18 17 17 16 16 18 18 16 14 14 14 13 12 12 12 12 13 13 13 13 14 14 13 12 12 12 12 12 12 12 11 11 10 10 10 8 8 8 9 9 8
9 8 11 11 7 6 6 6 7 9 9 9 9 11 14 14 17 10 7 9 7 6 1 2 2 2 4 4 10 11 9 8 12 12 9 14 15 22 27 23 26 23 21 21 19 20 22 21 20 20 20 20 20 20 20 20 19 18 18 17 18 19 17 15 14 14 14 14 13 12 12 12 12 12 12 13 13 13 12 12 11 11 11 12 11 11 10 10 9 9 8 7 7 8 9 8 8
8 9 12 9 5 5 5 6 7 9 9 8 8 11 15 14 18 11 9 10 5 4 4 6 6 3 7 7 7 7 8 8 9 10 11 16 20 25 25 23 25 21 21 20 19 21 22 22 21 21 20 20 20 21 21 21 21 20 19 19 19 19 17 15 15 14 14 14 13 13 12 12 12 12 12 12 12 11 11 11 10 10 10 10 10 9 9 9 8 8 7 7 8 9 9 9 9
10 11 12 10 5 5 5 7 8 10 11 11 10 11 16 14 18 19 3 6 2 4 5 5 8 3 9 10 9 7 8 9 8 10 15 19 23 25 23 23 23 21 21 19 20 21 23 23 22 22 20 20 20 21 21 22 22 21 20 20 20 18 16 16 15 15 14 14 13 13 13 12 12 11 11 10 10 9 9 9 9 8 8 8 8 7 7 8 8 8 8 8 9 9 9 10 10
11 9 8 9 5 5 7 10 10 11 12 14 14 14 18 18 18 19 13 6 2 0 3 3 4 5 5 10 9 10 11 7 9 12 16 19 24 25 22 21 22 22 21 20 20 22 23 23 23 23 21 20 20 21 22 22 21 20 20 20 19 17 16 16 15 15 14 14 13 13 12 11 10 10 9 8 7 7 7 7 7 7 7 7 6 6 7 8 9 9 9 9 9 9 9 10 10
12 7 4 6 6 6 8 10 12 11 13 16 17 19 20 21 18 11 10 10 6 2 3 1 2 6 5 14 8 8 12 10 14 19 18 20 24 24 21 20 23 23 22 22 20 22 23 23 24 23 21 20 21 23 22 21 20 19 19 19 18 17 16 16 16 15 15 14 13 12 11 10 8 7 6 6 5 5 5 6 6 6 5 5 5 5 6 8 9 8 9 9 9 9 9 10 10
11 8 5 7 7 8 10 10 12 13 15 17 18 21 21 23 18 9 8 8 6 6 8 5 2 3 8 18 11 8 10 14 21 22 20 22 24 23 21 21 24 24 24 24 23 23 22 23 24 23 21 20 22 23 21 20 19 18 18 18 18 17 17 16 16 15 15 14 13 12 10 9 7 6 5 5 4 4 4 4 4 5 4 4 4 4 6 8 8 8 8 9 9 9 9 10 10
8 7 6 6 8 10 12 11 12 13 16 17 19 21 20 22 19 19 17 8 5 8 10 11 6 4 12 18 9 8 13 20 23 20 22 24 23 21 20 21 26 27 26 26 24 22 20 22 24 23 22 21 22 21 21 20 19 19 18 18 18 17 16 16 16 15 15 14 12 11 9 8 7 7 6 5 4 4 3 3 2 3 3 4 5 5 7 9 8 8 8 9 9 8 9 9 10
6 6 6 7 9 10 11 11 12 14 16 17 17 19 18 19 23 22 13 3 5 9 11 12 8 7 10 15 7 12 18 21 23 22 23 23 23 21 20 25 29 27 27 27 24 21 19 20 21 23 22 21 22 21 20 19 19 19 18 18 17 17 16 16 16 15 15 13 12 10 9 8 8 7 5 5 4 4 5 4 3 2 3 4 5 6 8 9 8 7 8 8 8 8 8 9 9
7 7 7 8 9 10 11 12 13 15 17 18 17 18 16 20 24 13 4 5 8 11 13 11 7 6 9 11 6 14 19 20 22 24 24 23 22 21 22 27 28 28 27 27 24 21 20 19 19 21 22 21 21 21 19 19 19 18 17 17 17 17 16 16 16 15 14 13 11 9 8 8 7 6 5 5 5 5 6 6 4 3 4 5 6 8 9 10 8 7 7 8 7 7 7 7 8
8 8 8 8 9 10 13 13 13 15 14 15 15 17 16 20 20 4 4 7 9 12 12 12 8 4 8 10 9 12 16 20 23 24 24 23 23 22 24 27 27 28 27 26 25 21 20 20 19 20 21 21 21 20 19 18 18 18 18 17 16 16 16 16 15 15 14 12 10 8 7 7 7 6 5 5 5 6 6 7 6 5 4 5 6 8 10 10 8 7 7 7 6 6 6 6 7
8 8 8 8 9 11 13 12 12 13 11 13 15 18 16 10 6 4 0 6 8 12 9 11 6 11 12 9 9 9 14 21 25 24 23 23 23 24 26 29 27 27 26 26 25 22 20 20 20 20 20 19 19 19 18 18 17 17 17 17 16 16 16 16 15 14 13 11 9 7 7 6 6 5 5 5 5 6 6 6 7 6 5 4 6 8 10 10 8 7 6 5 5 5 4 5 5
9 7 8 8 9 11 11 11 13 13 11 13 11 10 7 2 6 5 2 7 8 11 7 9 6 9 12 12 10 11 18 25 27 25 24 24 24 25 28 28 26 25 25 25 24 23 21 20 21 21 19 18 18 18 18 17 17 17 17 17 16 16 16 15 15 14 12 11 9 7 6 5 6 6 5 5 4 5 5 6 6 7 6 4 5 8 10 9 8 6 5 4 4 4 3 3 4
8 7 7 8 10 11 10 11 13 12 11 10 3 7 3 7 5 4 4 5 7 10 10 9 9 6 13 14 14 20 27 28 27 26 25 24 23 24 26 24 24 24 24 24 23 23 23 22 22 21 20 18 18 17 16 16 17 17 16 16 16 16 15 14 14 13 11 9 8 7 5 5 6 6 6 5 5 4 4 4 5 6 6 5 5 7 9 9 7 6 4 3 2 2 2 2 3
8 8 8 9 11 12 10 12 11 10 11 8 2 4 4 5 6 6 2 6 9 10 12 9 7 7 15 17 24 29 32 32 29 27 25 22 20 22 22 21 22 21 23 24 24 25 25 24 23 21 20 19 19 19 17 16 17 17 15 15 15 15 14 13 12 11 10 9 8 6 4 5 5 6 5 4 4 4 4 3 3 5 5 6 6 7 8 7 6 5 4 2 1 0 1 1 3
8 7 9 10 10 12 11 13 12 11 10 5 5 4 4 4 6 6 5 9 9 10 13 2 5 8 19 25 32 32 32 33 29 27 23 20 19 19 19 20 21 20 22 22 23 26 25 24 23 21 21 20 20 20 18 16 17 16 14 15 15 15 14 13 12 10 10 9 8 6 5 6 4 4 4 3 2 2 2 2 2 3 4 4 5 6 7 7 6 5 4 3 2 2 3 4 4
9 7 9 10 11 12 13 15 15 15 15 8 8 3 1 3 5 4 5 8 9 10 12 8 15 14 22 26 31 30 30 29 26 25 22 21 19 19 19 19 20 21 22 21 23 25 24 23 22 22 22 22 20 19 18 18 18 16 14 14 14 15 14 12 11 10 10 8 8 5 5 6 5 5 4 4 4 1 2 1 1 2 3 3 3 4 5 6 6 6 5 5 5 5 5 4 5
11 9 9 11 13 15 15 17 18 18 13 5 4 6 3 6 5 4 4 7 9 10 10 10 18 17 21 22 25 27 26 25 24 24 21 21 20 20 20 20 21 22 22 22 23 25 23 24 23 23 24 24 21 18 19 20 19 17 16 14 13 14 13 12 11 10 10 8 7 5 4 6 7 5 4 5 5 2 1 0 0 0 1 3 2 1 2 3 3 4 6 7 7 8 8 6 6
9 11 11 12 14 15 18 19 20 15 7 8 4 3 5 6 5 7 8 8 9 9 12 11 20 20 21 20 20 22 21 21 22 22 21 21 21 21 21 21 21 22 23 22 23 23 23 24 25 25 26 24 21 19 20 20 19 18 18 15 13 15 13 12 11 10 10 9 9 6 5 8 7 4 4 5 5 4 2 1 1 1 1 2 2 1 1 1 3 5 5 5 6 8 9 8 8
9 14 15 16 16 14 18 19 15 10 6 8 11 5 3 5 8 8 9 9 9 8 11 14 23 22 22 21 19 20 18 19 20 20 21 22 22 21 21 21 22 23 22 22 23 23 24 25 26 26 24 23 21 19 19 19 20 19 18 16 14 14 14 12 12 11 10 10 9 7 6 8 8 4 3 4 4 6 7 5 2 1 1 1 2 2 3 5 6 7 7 6 5 7 8 9 9
10 13 17 18 19 17 16 14 8 6 9 9 10 9 4 9 9 6 9 10 12 10 7 8 25 23 23 22 19 20 19 20 19 21 22 23 23 21 21 21 22 24 22 22 23 24 26 25 25 24 22 22 19 18 19 19 20 19 17 18 15 14 15 13 13 12 10 10 9 7 7 7 6 4 4 4 3 5 7 5 4 3 2 4 3 2 5 6 7 9 10 8 7 8 8 9 11
14 13 16 17 19 21 20 13 6 4 9 9 9 11 10 14 10 6 11 11 15 10 9 7 23 24 24 23 20 20 21 21 20 22 22 22 22 22 22 22 22 23 22 23 23 24 25 24 24 23 21 21 20 19 18 17 18 18 16 17 14 13 15 13 13 12 10 10 9 8 9 7 5 5 5 4 6 7 6 4 4 5 4 6 6 4 6 5 5 7 8 9 9 10 10 11 12
17 15 15 15 17 20 20 16 10 5 6 9 11 13 13 13 9 9 13 11 13 3 14 13 18 18 20 22 21 19 19 20 19 19 17 19 23 23 22 23 23 23 24 24 24 24 24 24 23 22 21 19 19 18 16 16 16 16 16 15 14 13 13 12 12 11 10 10 10 9 8 7 6 6 7 6 8 7 6 5 5 5 4 6 5 4 6 6 7 7 7 8 9 10 12 12 12
15 17 16 15 17 18 17 18 16 9 7 10 12 15 13 12 10 12 15 12 11 9 21 17 14 12 13 16 18 17 17 16 14 12 10 14 21 23 22 24 23 22 24 25 24 23 24 23 21 20 20 18 18 16 15 16 15 15 15 15 15 14 12 13 12 11 10 9 10 9 8 7 7 7 7 7 8 6 5 7 7 5 5 6 5 6 8 8 8 7 8 8 9 11 13 13 12
13 17 18 19 19 17 16 17 18 13 10 12 13 14 14 13 12 11 13 13 13 8 20 18 15 13 11 12 13 11 9 7 8 3 5 11 17 21 22 22 22 22 23 24 22 23 23 21 20 19 18 18 17 15 15 15 14 15 13 13 15 13 12 13 13 11 10 10 10 9 9 8 8 7 7 7 7 6 6 7 7 6 7 7 7 7 7 7 7 7 7 9 10 12 13 13 12
14 17 17 20 20 18 18 15 13 11 10 14 14 15 14 14 14 13 14 12 16 14 16 18 16 13 12 12 8 7 9 11 8 2 8 11 14 19 21 22 22 23 23 22 23 23 21 19 20 18 16 16 16 15 15 13 14 15 12 13 14 12 12 12 11 11 10 10 10 10 10 8 7 7 5 4 4 4 5 5 5 5 6 6 6 5 5 5 6 7 9 10 11 12 13 15 14
15 17 14 15 17 18 21 16 13 12 11 14 14 14 15 15 16 16 16 13 17 16 13 12 11 10 7 7 9 9 8 7 8 11 13 15 15 19 21 21 22 22 21 21 23 21 18 19 17 15 16 14 13 15 15 13 14 13 12 13 12 11 12 12 11 11 11 10 9 9 8 7 7 6 5 3 2 3 4 5 5 5 4 4 4 4 4 5 6 7 8 9 9 10 13 14 14
15 16 12 10 12 14 20 17 15 15 13 14 13 11 12 15 18 18 15 12 10 5 10 8 6 7 8 11 9 6 6 5 4 7 9 11 8 15 20 21 20 20 21 21 22 21 18 18 15 14 14 11 11 14 13 13 13 12 13 13 12 12 12 12 12 11 10 8 7 7 7 7 6 6 6 5 4 4 4 4 5 4 4 4 4 4 4 4 5 6 7 8 9 10 12 13 13
13 14 11 9 9 10 16 17 16 16 13 14 15 9 9 14 16 17 15 10 6 13 16 13 11 10 9 10 9 8 7 9 11 13 10 12 13 4 12 19 20 20 22 20 20 21 18 17 15 14 13 11 12 13 11 12 13 13 13 13 13 12 11 12 11 10 9 6 5 6 7 7 6 6 6 5 5 5 5 4 4 4 3 3 2 4 4 4 5 6 7 8 10 11 12 13 13
10 11 10 10 9 9 15 18 19 17 12 16 16 9 10 10 1 1 3 7 16 17 15 12 11 10 8 6 6 6 6 11 14 16 14 10 12 12 6 11 15 18 21 20 20 19 17 15 15 16 14 13 13 12 11 13 13 13 12 11 11 10 9 8 8 8 8 6 6 6 6 7 6 6 5 4 4 4 4 3 3 3 2 1 2 4 4 5 6 7 7 8 10 12 12 13 13
10 11 10 11 12 10 11 16 21 21 15 16 17 10 9 4 10 11 10 15 18 15 12 13 12 10 10 6 5 6 6 7 6 7 7 3 5 3 6 8 10 13 16 18 18 16 15 15 17 18 15 15 13 12 12 12 12 11 11 9 8 8 6 6 7 7 6 6 7 7 7 6 6 6 5 3 3 3 2 2 2 2 1 2 3 4 5 5 7 7 8 9 9 11 12 13 13
10 10 10 12 14 12 10 13 18 23 18 16 18 14 10 5 14 12 13 15 15 13 10 11 11 10 11 8 6 8 6 4 5 5 5 6 11 10 10 11 11 14 17 18 17 17 19 19 19 17 15 15 14 12 12 10 9 8 8 9 9 8 4 2 6 7 8 6 5 6 6 5 4 4 4 2 2 1 0 1 1 0 2 3 4 4 5 6 7 8 9 10 10 11 12 13 14
11 11 10 11 13 13 13 13 14 22 20 17 16 16 14 7 15 12 13 15 13 13 10 9 10 11 13 9 7 7 7 6 7 10 11 9 9 10 13 14 15 18 18 18 21 22 22 20 18 16 15 15 12 12 13 10 8 8 7 8 8 6 4 2 4 5 5 4 4 6 5 4 3 2 3 2 1 1 1 2 2 3 3 4 5 6 7 7 8 9 10 11 11 11 11 13 14
15 14 12 12 12 12 15 15 13 20 18 17 16 15 16 11 14 13 13 15 14 13 11 7 8 10 11 9 8 8 7 6 7 9 10 10 9 10 15 16 19 19 17 19 20 20 20 18 17 17 16 14 12 12 11 8 7 7 7 6 3 3 4 4 4 4 5 4 5 6 5 4 3 3 2 2 3 3 3 4 4 5 6 6 7 7 8 8 9 10 10 11 12 12 12 12 12
16 15 13 15 14 11 15 17 14 19 14 15 17 15 15 12 14 14 13 15 14 13 12 8 8 9 10 11 12 12 10 9 9 9 10 11 11 12 15 18 21 19 17 20 21 21 20 17 17 17 15 14 14 11 8 5 4 4 4 4 3 4 6 6 6 6 7 7 5 5 6 6 6 7 7 6 7 7 6 7 7 7 8 7 8 8 8 8 9 10 11 12 11 12 13 12 12
17 14 12 13 14 12 15 17 15 18 13 12 16 16 16 14 15 14 14 14 13 13 14 12 11 9 9 12 14 13 13 12 12 13 13 13 12 13 12 15 19 18 17 19 22 25 23 20 19 17 16 15 15 12 7 4 4 3 2 3 5 6 7 8 8 8 7 6 5 8 9 9 9 10 10 9 9 9 9 9 9 9 9 9 9 9 9 9 9 11 11 12 12 12 13 12 12
17 11 12 11 12 13 14 17 19 16 10 9 16 16 11 13 15 13 13 11 10 12 13 15 15 12 10 12 14 13 14 15 15 14 14 14 14 13 10 12 15 15 15 16 21 25 23 20 19 17 17 16 15 12 7 6 7 4 2 2 4 5 7 8 9 10 8 6 8 10 10 10 10 10 11 10 10 10 10 10 10 10 10 10 10 10 10 11 12 13 12 13 13 13 12 12 12
15 11 11 10 12 14 11 14 18 14 9 9 14 12 4 12 13 10 10 9 8 10 12 14 14 13 12 13 12 12 13 14 16 16 14 14 16 14 12 13 13 13 13 15 21 23 20 21 21 19 18 16 14 12 8 6 6 5 5 4 4 6 8 10 10 9 7 6 9 10 10 10 10 11 11 10 10 11 10 10 10 10 11 10 11 12 12 12 13 14 14 15 15 14 14 14 13
15 15 12 10 13 16 12 13 14 12 11 10 11 9 7 11 13 9 8 9 8 9 13 14 12 11 10 11 11 11 11 11 13 16 13 14 16 15 14 14 14 13 12 14 18 20 20 22 22 19 17 15 14 13 11 8 6 5 6 6 6 6 7 9 8 5 5 7 9 10 11 11 11 11 11 10 10 11 11 10 10 10 11 11 11 12 12 12 13 14 15 16 16 16 15 16 15
13 17 17 14 13 16 18 17 12 10 9 12 12 8 7 12 15 13 9 9 8 7 11 15 13 13 12 11 10 10 10 10 11 14 13 14 16 16 16 15 14 14 14 14 16 18 20 23 23 19 18 17 15 15 14 13 11 7 5 7 7 5 5 5 5 5 7 9 9 9 10 11 11 11 11 11 10 10 11 11 10 11 11 11 12 13 13 13 14 14 16 16 17 17 17 16 16
10 14 17 18 14 15 20 18 11 8 8 11 14 11 5 9 12 14 13 11 10 7 8 13 14 12 12 10 10 10 10 9 10 13 14 14 15 17 16 15 15 15 16 17 16 18 20 21 21 19 19 19 19 18 16 15 14 10 7 6 7 6 5 5 7 8 10 10 10 9 9 10 10 10 11 11 11 11 11 11 10 10 11 11 12 12 13 14 14 14 15 15 16 17 17 17 16
9 12 16 20 18 16 20 17 12 9 7 9 14 14 6 6 10 15 17 14 13 11 9 12 13 13 12 9 11 12 11 11 12 11 13 14 15 17 17 16 17 17 18 18 17 18 17 18 20 20 20 20 19 19 16 14 13 12 11 8 7 7 7 7 8 9 9 10 11 10 9 9 9 9 11 12 11 11 12 12 10 10 10 11 11 11 12 14 14 13 14 14 15 16 16 16 16
10 13 17 19 17 16 14 12 9 9 8 7 13 15 9 6 11 15 17 16 14 13 12 13 15 15 11 9 11 12 12 13 14 12 14 15 16 18 18 17 18 18 18 18 18 17 17 20 22 21 21 21 19 18 16 14 13 12 13 12 10 9 8 8 9 9 10 11 11 10 10 9 9 10 10 11 11 11 11 11 11 10 10 11 11 11 12 13 14 13 13 14 16 15 14 15 16
12 15 18 17 15 13 10 9 10 10 8 8 13 15 11 6 11 14 13 14 14 12 11 12 15 15 12 11 12 13 12 11 13 13 13 15 18 19 19 19 19 20 20 19 18 18 19 22 25 24 24 23 20 19 18 16 13 11 12 11 9 9 9 9 10 10 11 10 11 11 9 9 10 10 10 10 10 10 10 10 11 11 11 11 12 12 12 13 13 13 14 14 15 16 15 15 15
15 15 15 14 13 11 8 9 9 8 7 11 16 17 14 8 8 14 12 14 16 14 12 13 16 18 15 12 12 13 13 10 11 12 12 15 19 21 21 21 21 20 20 20 20 20 21 23 27 27 25 23 21 19 18 17 15 13 13 12 9 8 9 9 10 11 10 10 11 9 8 7 8 9 9 10 10 10 10 10 11 10 11 12 11 11 13 13 12 13 14 14 14 16 16 15 15
16 13 9 10 9 8 7 7 6 6 8 13 18 17 16 10 6 11 12 15 19 17 16 17 18 20 18 13 12 14 13 11 12 12 12 13 17 20 21 20 21 20 21 22 22 22 23 24 26 26 24 24 22 19 18 17 16 15 14 12 10 10 10 10 10 11 10 10 9 7 7 8 9 9 8 10 10 10 10 10 11 10 11 12 12 12 13 13 13 14 14 14 15 15 16 16 16
15 12 9 9 8 7 8 7 6 7 7 10 15 17 14 9 8 13 13 15 19 17 18 20 20 20 18 15 14 13 14 13 13 12 11 11 13 17 20 20 21 20 21 23 22 22 22 21 23 25 26 24 22 19 18 17 15 14 13 11 10 10 11 10 10 11 10 8 7 7 7 8 9 10 8 9 10 9 10 10 10 11 11 12 13 13 13 14 14 14 14 15 15 15 16 16 15
15 12 10 10 8 7 9 7 7 7 6 9 15 16 12 7 10 19 18 16 18 18 17 18 20 19 17 17 14 12 14 14 13 13 13 12 13 15 18 20 20 20 21 21 21 21 22 21 23 25 25 23 21 20 18 17 15 13 12 10 9 10 11 10 10 10 10 9 8 8 8 8 9 9 8 8 8 8 9 10 10 11 12 12 13 13 13 14 14 13 13 15 15 15 16 15 14
14 12 10 10 8 7 7 7 7 7 7 10 14 11 8 5 6 15 18 16 17 18 16 16 16 17 16 17 16 13 13 12 12 14 14 14 17 18 18 19 20 22 22 21 21 22 21 22 23 24 23 22 21 20 18 17 15 13 12 10 9 9 10 9 9 9 9 9 9 9 8 8 8 8 7 8 8 8 9 10 11 12 12 13 13 14 14 14 14 14 14 15 15 16 16 15 15
11 11 11 10 9 7 5 6 5 3 5 8 8 6 3 1 1 10 15 15 16 17 17 16 16 18 16 15 15 13 12 12 12 14 15 16 19 20 18 19 21 22 22 21 22 22 21 21 21 22 23 22 20 19 18 16 14 12 11 10 10 10 10 10 10 10 10 9 9 9 9 8 8 8 7 8 8 9 10 10 11 12 13 13 14 14 15 15 14 14 15 16 16 17 16 16 16
8 11 12 11 12 9 5 6 3 1 4 6 6 6 3 2 2 8 13 14 16 17 18 17 18 20 17 13 13 13 13 14 13 14 15 16 18 20 20 20 21 21 21 21 22 21 21 21 21 22 22 21 19 18 17 16 15 13 12 11 11 11 12 12 12 11 10 10 9 9 9 9 8 7 8 8 8 9 10 11 11 12 13 13 14 14 14 15 14 14 15 16 17 17 16 16 17
8 10 12 10 11 10 6 6 4 3 6 5 7 11 8 6 4 6 11 14 14 16 19 19 19 19 15 13 15 15 16 16 15 14 14 15 18 21 20 20 21 21 21 22 22 21 20 20 21 22 21 19 18 18 17 17 16 16 15 13 13 12 12 12 12 12 11 11 10 10 10 10 9 8 8 8 9 10 11 11 12 13 13 14 14 14 14 15 15 15 15 16 17 17 16 16 17
12 9 10 9 9 8 7 6 5 7 7 5 9 13 10 8 7 8 12 14 13 16 18 17 19 19 15 15 17 18 17 15 13 12 12 13 16 19 19 20 21 22 22 23 23 21 21 21 21 20 20 19 18 18 18 17 17 17 16 15 14 14 13 13 13 13 12 12 11 11 11 10 10 10 9 9 10 11 11 12 13 14 14 15 15 15 15 15 15 15 15 16 16 16 16 16 17
15 10 11 9 7 7 7 5 5 7 6 6 9 11 8 7 9 13 14 13 13 16 15 14 18 20 17 17 17 15 14 13 11 11 11 12 15 19 21 22 22 23 23 23 22 22 21 21 20 20 19 18 18 18 18 17 17 17 17 16 15 15 14 14 13 13 12 12 12 11 11 11 11 11 10 10 11 12 12 13 14 15 16 16 16 16 15 15 15 16 15 15 16 16 16 17 18
12 11 12 11 7 7 7 6 7 7 6 6 7 7 7 6 8 14 16 13 13 14 12 13 18 20 19 19 17 14 13 13 12 12 12 12 15 20 23 23 24 24 22 22 22 22 21 20 19 19 18 18 18 17 17 17 17 17 17 17 16 15 15 14 13 13 13 12 12 12 12 12 12 11 11 11 12 13 14 14 15 16 17 17 17 16 16 15 15 16 15 16 17 17 18 18 19
11 10 10 11 9 8 8 8 9 8 6 6 6 6 6 4 5 10 12 11 12 13 15 16 18 20 19 19 18 15 14 14 14 14 13 13 16 20 23 24 24 24 23 23 23 21 20 19 19 18 17 18 18 17 17 17 17 17 17 17 16 15 15 15 14 13 13 13 13 13 12 12 12 12 12 12 13 14 14 15 16 17 17 17 17 16 16 16 16 16 16 17 18 18 19 20 20
Wind_Direction
309 317 319 307 301 298 294 292 282 276 262 262 264 263 261 261 261 261 272 287 285 26 73 95 55 14 347 337 53 79 48 52 61 20 116 124 138 146 123 117 120 120 127 137 137 135 138 139 141 141 138 138 134 132 134 135 134 134 134 134 132 127 126 127 127 124 122 120 118 115 110 108 106 105 103 101 101 100 100 98 96 96 96 95 93 91 89 88 88 88 86 80 74 69 63 60 55
306 308 305 289 280 283 295 302 287 280 273 273 269 273 277 275 275 266 301 1 348 77 80 85 58 356 345 323 70 76 52 56 82 84 103 130 139 130 117 118 120 121 129 136 136 137 142 143 143 142 140 139 137 137 137 137 136 134 133 132 131 128 128 128 125 124 123 121 120 116 112 110 108 107 106 105 104 103 102 99 98 99 98 97 93 92 90 89 88 85 79 71 69 64 58 56 52
304 304 302 293 271 256 274 273 267 271 268 269 268 269 270 267 261 257 326 47 38 58 78 104 61 340 316 318 67 66 74 74 90 96 110 131 136 124 119 120 120 123 129 132 135 140 145 147 145 143 142 140 138 139 140 140 138 135 134 134 132 131 131 128 127 127 124 122 121 116 113 112 111 109 108 107 106 102 99 98 98 98 97 95 92 91 90 85 81 76 67 63 65 58 52 49 48
298 296 290 294 285 262 272 262 258 266 263 262 268 268 268 273 266 251 95 78 66 48 331 16 7 128 344 357 79 77 96 81 89 109 123 135 136 128 126 122 121 124 131 134 136 144 148 148 146 145 143 141 139 138 139 139 138 136 135 134 133 135 134 131 130 128 125 124 121 118 116 114 113 111 110 110 110 108 106 106 103 104 103 101 101 99 97 94 86 81 73 67 62 53 51 48 49
287 281 270 269 285 283 275 267 264 259 258 262 263 263 263 268 272 261 102 86 56 355 338 4 323 95 55 26 76 86 108 100 99 117 119 127 130 126 128 125 125 132 135 135 138 147 149 148 147 145 143 141 140 137 136 135 134 134 133 132 134 138 136 133 132 129 128 125 123 120 119 116 115 114 113 113 113 114 117 116 112 113 115 115 117 111 104 103 97 92 86 72 59 52 56 53 53
271 266 255 245 263 292 274 262 260 259 259 263 264 269 269 267 270 273 307 64 34 326 324 322 303 15 75 61 66 74 100 116 118 119 116 127 132 127 130 129 130 136 136 133 139 149 147 148 146 143 142 139 138 135 134 133 131 131 132 134 137 140 137 135 133 131 130 126 125 123 121 120 119 118 117 116 115 115 118 122 119 115 111 113 117 113 105 101 98 93 83 69 60 58 60 56 52
260 261 245 230 243 260 253 254 255 259 259 262 267 271 274 276 275 284 314 331 290 94 276 287 327 322 121 108 77 65 64 93 133 124 123 137 138 132 133 134 135 137 133 128 134 145 146 147 145 141 140 137 136 134 133 132 131 133 136 139 140 140 138 137 135 133 131 128 126 124 123 122 119 119 119 118 121 121 126 134 134 127 116 117 117 125 127 111 102 94 81 70 63 62 61 55 50
249 256 257 244 245 237 241 251 251 253 257 259 264 268 270 272 272 284 323 314 302 330 284 28 64 294 148 119 96 82 60 68 115 122 130 138 137 135 138 142 142 136 127 126 134 143 145 146 143 140 137 135 135 133 132 133 134 137 140 142 141 141 139 137 136 135 133 130 128 126 123 119 116 113 114 116 121 124 132 145 151 155 150 143 132 131 137 120 105 97 84 73 67 65 63 56 49
235 233 248 257 252 250 248 252 253 252 253 254 256 261 264 268 270 249 240 253 283 293 285 297 205 260 109 106 97 112 93 93 109 119 136 139 134 138 146 151 145 133 126 134 141 141 142 144 143 139 135 134 134 133 134 136 138 140 143 143 143 142 140 138 138 137 134 133 131 128 121 113 107 100 102 105 110 118 126 142 156 167 169 170 154 131 131 123 112 101 87 76 72 71 66 57 52
225 221 232 245 246 253 251 251 256 256 253 253 252 253 256 260 262 249 238 212 249 276 276 281 251 208 107 105 107 120 120 119 120 126 142 144 138 144 157 150 137 129 128 137 138 135 139 143 142 138 135 136 136 136 138 140 142 144 146 145 144 142 141 141 140 139 136 134 132 126 119 110 102 97 96 97 99 107 116 127 145 165 169 168 161 142 133 131 124 106 90 80 78 78 71 62 58
223 216 225 240 243 246 250 252 253 257 258 257 254 250 252 255 255 254 263 326 280 274 276 275 251 220 119 103 108 123 129 131 132 138 144 147 144 153 155 133 129 129 129 134 134 133 137 140 141 137 135 138 140 140 142 144 145 146 148 147 146 144 143 144 142 140 136 132 130 124 117 107 101 100 95 95 92 96 104 104 112 139 160 161 158 152 144 140 133 113 96 87 85 85 79 68 65
231 216 215 232 241 243 249 252 253 258 257 257 256 250 244 246 252 241 232 280 268 269 269 263 244 220 131 105 112 131 135 136 139 142 143 148 149 156 144 126 129 129 129 136 136 135 137 139 139 138 138 142 144 142 146 148 148 149 149 149 149 147 146 146 144 141 136 132 130 125 117 108 101 100 94 89 81 83 90 88 92 108 139 153 155 156 152 147 139 121 104 93 91 93 88 79 74
231 225 221 226 238 247 251 251 255 259 257 257 257 259 249 239 245 208 143 239 261 270 262 259 252 178 124 109 125 138 136 140 143 143 146 150 153 158 140 128 131 127 130 135 133 136 140 141 139 141 143 145 146 143 147 148 148 152 152 151 150 149 148 147 147 141 138 135 132 126 116 107 100 94 90 88 80 78 82 83 85 98 126 148 156 159 156 153 146 130 114 100 95 98 99 93 85
226 233 236 237 236 240 249 253 256 256 258 255 254 260 257 247 238 94 63 259 266 266 263 267 249 107 115 122 131 147 140 147 145 143 151 152 157 157 134 127 132 128 132 133 133 140 142 142 141 143 144 144 146 145 147 149 151 154 155 154 151 152 150 150 149 144 142 137 130 125 118 111 100 87 82 88 88 85 84 84 87 97 113 137 153 157 159 157 152 139 122 106 97 100 112 111 99
226 236 242 249 243 239 241 245 252 256 262 257 263 268 246 85 76 106 220 265 275 272 271 249 227 111 142 153 147 157 147 149 148 149 155 155 162 155 131 128 133 133 135 137 140 145 144 143 143 143 143 144 146 148 149 152 155 155 156 156 153 153 152 152 150 146 142 134 132 129 125 121 109 99 94 98 99 93 88 81 86 98 104 116 141 155 161 162 157 148 132 114 98 94 114 136 128
225 241 241 245 246 245 239 242 248 249 257 262 352 45 107 104 120 198 213 250 264 271 272 242 234 174 159 153 144 151 147 148 152 154 156 157 161 150 136 135 138 138 140 146 151 150 148 145 145 145 145 146 144 147 149 153 159 157 155 156 155 154 154 153 150 146 140 136 141 139 132 129 120 110 99 100 104 95 90 82 78 97 108 114 129 151 161 165 165 162 154 132 108 93 101 157 171
219 233 240 239 239 243 242 245 248 250 253 242 109 101 191 165 182 203 170 245 252 260 258 249 252 173 144 138 139 144 145 148 155 156 156 156 154 147 144 144 144 146 148 157 158 151 150 149 148 148 147 147 145 147 148 155 162 159 155 156 156 154 155 155 152 148 143 148 152 151 150 140 131 117 106 104 99 83 91 91 72 87 104 120 134 152 165 174 179 179 180 174 167 110 351 259 229
215 220 235 237 234 238 240 247 252 269 271 208 175 195 199 203 211 181 165 231 239 259 255 210 45 108 123 130 136 142 145 149 156 156 155 154 155 154 151 151 153 155 156 161 157 148 149 152 152 151 150 150 147 147 148 158 162 157 158 159 158 156 157 157 158 155 152 161 161 158 151 143 150 135 126 145 126 59 67 75 58 79 86 115 142 160 173 185 194 203 212 224 245 276 292 282 257
218 220 227 233 237 239 241 251 254 258 259 209 168 144 137 233 257 213 185 221 211 238 246 108 80 97 115 127 136 140 147 149 154 154 155 158 161 160 155 159 160 159 159 158 153 149 152 156 155 153 152 151 148 148 150 155 156 157 164 164 160 159 161 161 161 160 160 163 156 149 138 144 171 163 145 167 185 299 8 10 359 59 73 87 122 158 182 199 211 223 232 242 250 266 282 274 247
217 225 228 231 236 246 247 248 251 255 269 273 124 111 196 245 269 264 242 251 231 225 231 128 111 117 119 130 138 141 148 149 152 153 156 161 164 163 160 164 163 160 159 155 153 154 157 156 155 155 154 152 149 149 150 150 152 158 165 165 162 163 165 164 163 167 168 165 159 154 156 167 177 189 193 184 198 260 329 293 263 6 71 75 71 124 161 193 227 253 247 246 252 258 269 263 241
211 222 232 236 231 241 251 250 252 261 293 314 318 131 189 243 241 249 254 256 248 223 227 173 133 132 133 137 142 144 150 152 156 157 158 164 166 166 164 166 161 157 156 152 154 157 157 155 155 156 155 152 149 149 149 150 155 158 162 166 165 167 167 164 168 174 170 169 171 166 183 185 180 211 219 191 202 224 256 274 161 174 171 99 46 13 16 313 311 310 277 261 268 267 263 257 253
212 224 231 241 241 235 240 247 256 266 258 263 280 261 192 251 229 229 243 248 257 233 230 183 141 138 143 142 146 149 156 161 162 161 163 168 168 167 165 165 157 150 152 152 154 155 154 155 155 155 154 153 151 150 151 155 159 157 161 167 167 169 169 168 171 175 171 171 177 174 189 191 185 209 202 190 205 212 241 272 234 192 232 229 355 327 273 281 301 302 285 275 279 281 266 250 255
216 228 228 234 245 249 248 251 262 271 255 245 263 270 270 265 247 229 239 247 258 263 296 163 143 141 144 145 153 156 164 169 167 168 170 170 167 167 166 163 155 148 151 153 152 152 154 155 154 154 153 152 153 151 155 162 162 158 161 166 169 173 172 174 177 176 175 173 178 186 192 188 188 202 182 197 204 204 233 244 229 217 208 233 247 277 251 258 286 285 278 278 275 275 270 257 256
222 229 230 230 235 248 258 265 268 248 255 259 266 268 259 256 254 244 242 244 251 271 3 116 142 141 143 145 159 164 170 173 171 171 172 172 166 165 165 157 152 148 149 152 149 151 154 154 152 152 153 154 155 151 155 162 162 158 160 163 169 176 171 175 179 177 181 177 180 192 194 188 191 191 158 179 195 193 211 197 206 205 194 225 217 224 240 241 265 263 266 271 270 273 272 270 267
223 229 233 235 233 240 250 258 256 218 237 254 259 263 255 250 253 256 250 240 241 204 77 108 132 140 147 150 161 165 173 173 168 167 171 179 165 161 161 150 150 151 150 149 147 150 152 150 151 152 153 156 153 151 155 155 152 152 157 162 168 172 169 174 178 177 182 181 185 192 195 191 188 188 167 187 206 191 194 201 215 206 206 237 224 227 244 249 258 254 261 262 265 280 279 281 279
217 227 234 238 240 238 239 245 242 220 224 236 240 249 249 249 249 252 252 246 239 135 106 114 127 148 155 151 162 166 174 170 157 158 181 193 166 156 158 149 152 155 148 146 146 149 149 150 152 152 154 153 150 152 151 145 144 151 158 162 164 168 172 177 176 176 180 182 188 188 193 198 195 197 183 200 215 196 196 210 217 212 213 239 248 260 259 260 261 256 269 274 278 285 282 287 292
217 223 230 235 244 245 239 241 234 220 224 233 237 242 241 243 241 243 245 242 246 180 125 129 143 154 159 159 167 163 158 114 80 116 218 210 174 158 155 147 150 151 144 143 143 145 147 150 149 152 155 149 148 150 145 143 148 157 164 163 162 169 177 175 173 177 179 179 186 183 187 197 199 200 187 201 211 195 204 210 211 218 221 239 258 265 265 265 265 268 278 286 287 285 284 287 293
231 230 231 229 235 246 246 243 234 224 225 231 240 249 246 239 233 239 238 225 238 220 143 146 162 158 166 165 144 83 51 56 58 273 242 224 187 159 152 149 146 144 143 142 138 142 147 146 145 149 151 149 149 146 144 150 157 164 167 162 164 174 176 171 173 178 176 177 182 183 188 188 187 191 178 197 219 198 208 214 217 225 227 249 268 261 264 273 277 285 286 287 287 286 289 289 289
239 239 241 233 228 238 243 238 228 228 234 231 233 247 245 238 235 236 238 235 235 212 153 159 173 157 154 120 94 80 82 127 176 210 222 228 200 160 148 146 141 138 142 141 134 137 138 137 142 141 144 155 151 140 146 157 161 162 159 162 171 173 171 172 176 177 175 181 184 184 190 181 173 180 169 171 219 211 207 212 218 224 228 250 266 263 271 278 281 285 284 292 295 291 293 295 293
237 235 237 239 231 232 234 229 220 222 231 228 225 237 237 235 236 235 234 234 232 160 84 48 59 59 39 48 58 75 94 141 202 229 231 256 228 157 144 136 134 134 136 133 127 128 127 129 134 130 139 152 141 140 154 160 155 152 155 167 173 168 173 180 178 178 179 180 184 183 184 184 172 167 167 167 180 198 203 211 215 219 230 243 257 270 276 278 285 291 293 301 302 299 299 300 297
231 231 227 228 234 230 225 219 214 218 220 217 224 237 241 236 231 239 239 206 139 84 68 52 62 57 41 43 39 37 26 21 11 358 350 335 342 41 132 133 131 129 127 126 124 124 124 125 128 132 143 145 139 151 157 149 148 153 162 169 168 171 181 185 181 183 186 177 180 186 179 181 173 164 175 178 178 193 203 208 210 213 231 252 265 272 283 299 307 308 309 309 307 307 306 303 300
222 224 222 219 231 236 223 212 208 217 212 207 222 235 239 244 214 319 298 101 97 94 96 94 92 89 87 75 51 52 25 24 22 7 8 4 359 6 44 110 120 121 122 123 121 119 117 121 133 144 151 145 143 152 145 141 150 157 164 168 171 176 177 184 187 184 182 173 176 188 184 179 173 172 184 189 187 200 212 201 206 222 243 283 288 300 317 325 318 314 316 313 310 309 306 305 304
215 215 221 216 219 233 230 210 201 210 212 205 216 232 238 222 82 78 75 82 92 101 109 113 112 112 114 111 90 85 65 53 50 18 8 75 124 57 45 74 91 104 108 108 109 117 127 135 146 152 149 139 137 141 141 148 154 153 159 166 172 172 170 175 177 177 179 178 181 186 186 180 176 178 178 205 204 194 223 190 189 226 310 321 308 324 331 327 320 320 319 316 313 310 309 309 309
208 206 220 221 216 223 231 219 197 197 208 211 210 223 239 139 99 101 100 96 100 102 106 119 125 131 127 120 114 111 120 142 131 143 217 184 152 154 139 124 116 111 108 111 122 143 154 151 149 149 141 134 133 138 147 152 146 140 154 175 175 159 153 181 170 176 185 189 194 185 182 177 177 176 162 196 212 124 343 156 160 309 351 324 323 339 338 333 327 325 324 322 320 315 312 311 311
205 200 210 222 223 217 223 233 197 184 199 216 211 214 226 160 110 112 113 111 110 113 124 133 136 138 131 132 137 132 145 161 142 160 194 185 152 151 144 135 128 124 122 133 149 156 152 145 142 141 138 134 129 136 151 154 142 136 149 180 183 137 99 223 193 169 168 176 187 177 170 164 156 148 141 155 124 76 14 64 48 3 360 337 344 354 352 346 334 332 331 327 324 320 314 311 311
205 203 205 213 227 218 221 236 194 174 192 213 216 214 216 185 131 132 130 121 118 123 133 136 138 135 131 136 134 131 135 126 132 160 171 160 157 153 141 135 135 137 137 144 150 141 130 133 140 136 130 126 120 131 147 150 149 143 141 160 176 127 131 179 188 153 148 173 194 176 149 132 118 89 83 82 65 50 19 33 31 12 10 357 353 355 351 347 341 340 335 331 330 326 322 318 317
214 207 209 211 225 219 215 231 197 171 188 213 215 217 214 185 147 148 141 129 129 131 136 140 143 137 138 142 137 140 140 132 140 146 145 151 149 133 128 133 140 141 141 142 139 130 128 138 144 129 117 125 131 135 131 119 136 131 136 158 155 164 163 158 163 157 154 169 182 143 112 91 80 67 53 54 53 47 36 28 24 19 16 6 1 358 354 351 349 346 340 339 337 329 327 326 325
233 216 214 210 220 228 214 224 209 175 184 214 208 221 219 176 150 154 148 143 147 147 144 145 148 146 143 144 147 148 138 141 154 146 147 155 138 122 122 131 137 136 138 142 138 136 136 139 143 132 127 142 146 136 118 122 166 153 175 194 158 161 157 142 145 140 132 135 108 86 83 72 64 57 48 46 42 42 41 33 29 24 20 15 11 7 4 2 359 356 350 346 342 335 331 329 332
244 230 228 215 206 229 221 219 220 186 178 214 200 218 221 152 142 146 145 148 155 157 151 146 151 157 155 151 153 153 147 152 158 148 149 149 128 122 130 134 135 133 133 140 141 138 130 129 143 147 145 149 142 131 127 160 171 150 144 191 150 140 134 131 129 121 114 102 82 72 68 63 57 51 46 42 38 40 38 33 32 26 22 21 17 13 12 13 8 4 360 355 349 343 338 337 341
240 237 237 227 200 217 222 214 217 187 172 219 200 197 154 120 129 130 133 138 141 149 147 143 153 161 159 154 151 157 163 162 155 147 143 138 130 133 144 141 136 134 133 142 145 138 126 130 147 157 153 141 132 134 139 150 150 132 137 152 133 121 124 122 105 104 112 93 78 69 60 59 56 49 44 40 41 43 39 33 31 28 27 27 23 17 15 12 8 7 6 3 358 352 345 340 341
229 234 233 233 212 210 220 216 203 172 178 219 209 177 130 129 137 133 139 137 134 144 143 141 151 157 151 146 149 161 175 172 153 143 137 135 137 142 151 150 143 141 143 148 148 138 130 139 152 156 145 126 123 134 131 124 127 139 145 137 128 125 119 112 101 103 116 94 82 73 62 57 57 53 44 41 42 40 38 35 32 30 28 31 27 19 16 13 9 11 8 5 2 358 351 340 340
221 229 230 236 222 202 218 225 193 167 191 205 216 213 161 155 152 146 152 144 140 152 145 144 151 158 155 153 161 169 177 173 146 134 135 134 136 140 149 155 149 145 147 148 145 139 135 145 153 146 130 123 129 137 132 125 131 144 139 126 134 126 89 102 146 150 112 92 84 79 73 62 56 55 49 45 43 37 36 36 37 36 31 31 26 19 21 18 11 10 7 4 3 359 355 347 343
217 216 224 238 235 205 215 219 176 170 209 190 209 234 180 158 162 153 156 156 154 163 159 151 153 164 164 162 175 175 170 158 129 124 132 135 139 141 145 154 153 147 145 144 143 145 143 143 143 136 131 136 139 137 134 131 137 148 151 149 149 137 128 149 149 127 105 93 84 74 70 65 57 55 53 48 44 37 32 31 31 35 34 29 20 16 20 16 11 8 5 5 3 0 0 356 350
215 198 214 235 242 229 218 204 167 174 215 197 207 227 214 173 173 162 163 163 158 165 175 161 157 168 166 162 176 168 153 140 129 131 138 143 148 143 142 152 155 148 142 143 148 152 146 134 129 131 136 140 138 132 131 133 137 144 148 141 124 130 159 156 122 107 102 95 87 76 69 72 65 56 53 47 42 37 34 32 26 27 31 25 18 15 15 14 13 9 7 7 4 2 3 359 356
216 194 209 229 240 250 241 220 199 187 196 217 213 216 224 196 173 172 169 163 164 171 178 170 161 163 159 159 168 155 140 140 142 145 146 149 150 142 141 150 151 145 140 142 147 146 137 131 131 133 134 133 129 124 122 123 125 131 132 121 120 141 155 136 114 104 101 94 92 88 80 78 71 59 51 44 38 35 34 35 32 28 25 24 20 17 16 15 13 11 11 10 6 5 5 1 359
215 204 206 218 231 249 260 258 242 204 192 232 220 204 222 221 163 171 177 167 170 177 179 174 161 158 159 165 163 145 137 145 147 146 145 145 144 139 140 145 143 140 138 136 137 136 133 131 130 127 124 119 116 115 112 109 108 110 110 109 130 151 141 128 117 108 104 98 94 90 80 72 64 56 50 43 38 37 37 36 34 30 26 25 21 19 18 14 12 15 14 9 10 11 7 5 5
213 215 204 204 220 233 247 264 249 208 201 234 230 206 208 227 166 168 183 174 171 171 173 177 167 161 164 168 161 142 137 146 146 142 135 132 135 136 137 137 136 135 135 132 132 134 134 130 124 118 114 109 108 110 106 101 100 98 98 106 117 121 125 128 117 106 101 94 90 86 81 77 68 59 51 47 42 41 41 38 35 32 30 27 23 23 19 13 17 20 15 13 14 14 10 11 10
209 223 208 191 205 217 233 257 240 209 210 220 230 221 205 212 186 171 178 173 171 168 169 175 172 165 164 164 158 143 139 147 145 137 129 128 133 136 135 132 133 134 132 130 132 134 133 129 123 115 111 111 109 109 106 101 101 99 99 106 105 99 105 109 102 98 93 87 88 90 92 89 80 70 57 49 45 44 44 40 38 35 32 28 24 27 21 18 26 23 17 18 16 12 12 14 11
207 222 211 191 189 198 214 228 217 216 227 215 220 228 219 207 169 166 176 175 172 170 170 174 172 167 161 149 144 143 145 148 143 137 135 136 138 138 137 135 136 136 132 131 132 133 131 127 119 111 111 113 110 108 107 104 103 102 101 104 105 101 99 96 94 93 94 97 97 91 86 81 75 68 58 52 46 45 46 41 39 36 34 30 27 29 26 23 29 27 21 22 20 18 16 15 12
205 214 206 198 188 189 199 206 210 215 237 238 226 226 227 214 165 166 177 178 171 171 174 174 168 164 155 139 134 139 142 143 141 143 145 145 143 139 137 138 138 137 135 132 132 132 130 121 112 108 108 110 108 106 105 104 102 100 101 106 111 109 102 98 92 88 95 101 95 90 85 80 75 67 60 57 50 49 49 43 40 37 35 33 30 30 29 26 30 30 26 24 22 20 17 16 14
205 208 201 205 201 197 198 199 206 210 222 237 241 233 216 223 183 168 173 174 174 172 169 169 156 143 138 135 135 135 136 142 144 147 151 147 142 140 140 141 140 138 136 134 134 133 127 119 114 111 109 110 108 106 104 104 102 101 103 109 113 113 110 108 103 97 100 100 96 96 92 85 82 74 66 60 55 55 53 45 41 40 37 36 34 34 33 31 32 31 28 27 24 20 16 15 14
205 203 198 205 208 197 191 206 203 219 236 225 236 244 197 246 87 151 165 172 173 166 160 163 141 123 127 134 139 142 145 148 146 149 153 145 142 145 146 143 139 137 135 135 135 132 125 121 118 114 112 111 108 107 106 107 110 112 114 116 117 120 122 120 117 111 106 105 105 101 95 92 87 81 73 63 56 53 54 51 44 41 40 38 37 37 35 33 34 32 30 28 24 19 16 15 14
196 200 201 204 214 207 185 198 165 52 258 214 204 219 168 125 114 146 165 171 171 165 159 156 134 125 134 138 140 147 149 149 148 153 153 144 146 151 149 143 139 138 138 136 134 130 126 125 120 114 112 110 109 111 113 116 121 124 127 128 125 123 123 120 119 117 112 110 109 102 98 95 88 82 75 66 59 54 53 53 47 43 42 39 39 40 37 36 36 35 32 28 24 20 18 18 14
201 195 195 200 223 233 215 200 161 178 235 213 203 214 191 170 175 162 171 176 175 166 156 150 138 131 137 142 145 148 150 152 151 152 151 144 149 151 145 142 140 140 138 133 129 128 126 125 122 118 118 118 119 120 123 127 130 131 131 130 126 124 122 120 119 118 116 112 108 104 99 93 87 83 76 66 63 59 54 53 51 47 44 41 42 42 40 39 38 38 36 31 27 23 21 20 15
220 195 180 196 221 231 228 215 185 193 215 219 216 219 210 195 182 164 176 181 173 158 154 159 151 138 137 146 149 148 150 152 150 150 149 145 147 145 139 139 138 136 131 127 128 128 126 124 123 123 124 127 127 128 131 133 134 133 130 127 125 123 121 119 117 115 114 111 107 103 97 92 88 82 76 69 65 61 58 56 52 49 47 44 43 43 42 40 38 40 37 32 28 23 22 22 18
223 206 182 202 225 222 220 216 204 203 205 213 219 219 218 205 172 166 181 187 176 165 163 164 151 140 142 149 148 148 150 151 148 147 145 142 141 138 135 135 134 132 130 131 132 130 126 125 125 127 128 129 130 133 135 135 134 132 129 126 123 121 118 117 117 115 113 109 105 101 94 90 86 81 76 71 66 63 60 57 53 50 48 44 42 42 42 41 39 40 36 32 28 24 23 23 19
213 215 192 196 219 224 215 209 210 213 207 203 216 223 218 199 164 172 181 183 183 174 149 136 137 136 139 143 145 149 150 148 146 143 141 139 136 135 136 134 133 135 135 132 128 125 125 126 128 130 131 132 133 134 133 133 133 130 127 124 120 118 117 116 116 115 112 107 102 99 94 90 87 82 77 73 68 65 61 57 53 49 46 43 42 41 42 42 41 40 36 33 30 26 26 26 22
203 220 202 192 205 213 209 211 209 211 217 209 211 225 221 195 167 178 176 171 179 168 138 130 137 134 131 140 146 149 150 150 148 144 141 140 138 138 140 139 139 140 134 124 122 126 129 130 132 133 133 134 133 132 131 130 129 125 123 121 119 118 116 115 116 115 110 106 102 98 95 92 88 82 79 75 71 66 61 57 53 48 45 43 41 42 45 44 41 39 38 35 32 30 29 28 25